Flag for Kenya Weather past 2 weeks in Nairobi, Kenya

Now
77 °F

Partly sunny.


Feels Like: 79 °F
Forecast: 58 / 71 °F
Wind: 9 mph from East

Location: Nairobi / Wilson

Current Time: Sep 2, 2015 at 4:26:07 PM

Latest Report: Sep 2, 2015 at 3:00 PM


Visibility: N/A

Pressure: 30.12 "Hg (24.84 "Hg at 1680m altitude)

Humidity: 51%

Dew point: 57 °F

Location of NairobiLocation

Historic Weather in Nairobi — Graph

°F

Nairobi temperature yesterday

Maximum temperature yesterday: 79 °F (at 4:00 PM)
Minimum temperature yesterday: 57 °F (at 6:00 AM)
Average temperature yesterday: 69 °F

Past Weeks' High & Low Weather Summary

 TemperatureHumidityPressure
High79 °F (Aug 19, 3:00 PM)100% (Aug 23, 8:00 AM)30.30 "Hg (Aug 23, 8:00 AM)
Low50 °F (Aug 24, 6:00 AM)30% (Aug 28, 3:00 PM)30.07 "Hg (Aug 18, 5:00 PM)
Average68 °F61%30.18 "Hg
* Reported Aug 18 3:00 PM — Sep 2 3:00 PM, Nairobi, Weather by CustomWeather, © 2015

Note: Actual official high and low records may vary slightly from our data, if they occured in-between our weather recording intervals... More about our weather records

Advertising

Nairobi weather history for previous 24 hours

 ConditionsComfort  
Time TempWeatherWind HumidityBarometerVisibility
3:00 PM
Wed, Sep 2
77 °FPartly sunny.9 mph51%30.12 "HgN/A
2:00 PM75 °FPartly sunny.No wind54%30.15 "HgN/A
1:00 PM72 °FPartly sunny.7 mph57%30.18 "HgN/A
12:00 PM70 °FPartly sunny.No wind64%30.21 "HgN/A
11:00 AM66 °FPartly sunny.No wind73%30.21 "HgN/A
10:00 AM64 °FPartly sunny.No wind83%30.24 "HgN/A
9:00 AM61 °FMore clouds than sun.No wind88%30.24 "HgN/A
8:00 AM61 °FMore clouds than sun.No wind88%30.21 "HgN/A
7:00 AM59 °FMore clouds than sun.No wind94%30.18 "HgN/A
6:00 AM59 °FPassing clouds.No wind94%30.18 "HgN/A
10:00 PM
Tue, Sep 1
63 °FPassing clouds.No wind83%30.21 "HgN/A
9:00 PM66 °FPassing clouds.No wind78%30.18 "HgN/A
8:00 PM70 °FDrizzle. Overcast.12 mph60%30.15 "HgN/A
7:00 PM73 °FPassing clouds.12 mph53%30.12 "HgN/A
6:00 PM73 °FScattered clouds.9 mph50%30.12 "HgN/A
5:00 PM77 °FScattered clouds.12 mph42%30.12 "HgN/A
4:00 PM79 °FScattered clouds.14 mph42%30.12 "HgN/A
Weather by CustomWeather, © 2015

See weather overviewHow to use our weather pages